QPF
0.00 0.00 0.00 0.00 0.00 0.00 0.00 0.00 0.00 0.00 0.00 0.00 0.00 0.00 0.00 0.00 0.00 0.00 0.00 0.00 0.00 0.00 0.00 0.00 0.00 0.00 0.00 0.00 0.00 0.00 0.00 0.00 0.00 0.00 0.00 0.00 0.00 0.00 0.00 0.00 0.00 0.00 0.00 0.00
0.00 0.00 0.00 0.00 0.00 0.00 0.00 0.00 0.00 0.00 0.00 0.00 0.00 0.00 0.00 0.00 0.00 0.00 0.00 0.00 0.00 0.00 0.00 0.00 0.00 0.00 0.00 0.00 0.00 0.00 0.00 0.00 0.00 0.00 0.00 0.00 0.00 0.00 0.00 0.00 0.00 0.00 0.00 0.00
0.00 0.00 0.00 0.00 0.00 0.00 0.00 0.00 0.00 0.00 0.00 0.00 0.00 0.00 0.00 0.00 0.00 0.00 0.00 0.00 0.00 0.00 0.00 0.00 0.00 0.00 0.00 0.00 0.00 0.00 0.00 0.00 0.00 0.00 0.00 0.00 0.00 0.00 0.00 0.00 0.00 0.00 0.00 0.00
0.00 0.00 0.00 0.00 0.00 0.00 0.00 0.00 0.00 0.00 0.00 0.00 0.00 0.00 0.00 0.00 0.00 0.00 0.00 0.00 0.00 0.00 0.00 0.00 0.00 0.00 0.00 0.00 0.00 0.00 0.00 0.00 0.00 0.00 0.00 0.00 0.00 0.00 0.00 0.00 0.00 0.00 0.00 0.00
0.00 0.00 0.00 0.00 0.00 0.00 0.00 0.00 0.00 0.00 0.00 0.00 0.00 0.00 0.00 0.00 0.00 0.00 0.00 0.00 0.00 0.00 0.00 0.00 0.00 0.00 0.00 0.00 0.00 0.00 0.00 0.00 0.00 0.00 0.00 0.00 0.00 0.00 0.00 0.00 0.00 0.00 0.00 0.00
0.00 0.00 0.00 0.00 0.00 0.00 0.00 0.00 0.00 0.00 0.00 0.00 0.00 0.00 0.00 0.00 0.00 0.00 0.00 0.00 0.00 0.00 0.00 0.00 0.00 0.00 0.00 0.00 0.00 0.00 0.00 0.00 0.00 0.00 0.00 0.00 0.00 0.00 0.00 0.00 0.00 0.00 0.00 0.00
0.00 0.00 0.00 0.00 0.00 0.00 0.00 0.00 0.00 0.00 0.00 0.00 0.00 0.00 0.00 0.00 0.00 0.00 0.00 0.00 0.00 0.00 0.00 0.00 0.00 0.00 0.00 0.00 0.00 0.00 0.00 0.00 0.00 0.00 0.00 0.00 0.00 0.00 0.00 0.00 0.00 0.00 0.00 0.00
0.00 0.00 0.00 0.00 0.00 0.00 0.00 0.00 0.00 0.00 0.00 0.00 0.00 0.00 0.00 0.00 0.00 0.00 0.00 0.00 0.00 0.00 0.00 0.00 0.00 0.00 0.00 0.00 0.00 0.00 0.00 0.00 0.00 0.00 0.00 0.00 0.00 0.00 0.00 0.00 0.00 0.00 0.00 0.00
0.00 0.00 0.00 0.00 0.00 0.00 0.00 0.00 0.00 0.00 0.00 0.00 0.00 0.00 0.00 0.00 0.00 0.00 0.00 0.00 0.00 0.00 0.00 0.00 0.00 0.00 0.00 0.00 0.00 0.00 0.00 0.00 0.00 0.00 0.00 0.00 0.00 0.00 0.00 0.00 0.00 0.00 0.00 0.00
0.00 0.00 0.00 0.00 0.00 0.00 0.00 0.00 0.00 0.00 0.00 0.00 0.00 0.00 0.00 0.00 0.00 0.00 0.00 0.00 0.00 0.00 0.00 0.00 0.00 0.00 0.00 0.00 0.00 0.00 0.00 0.00 0.00 0.00 0.00 0.00 0.00 0.00 0.00 0.00 0.00 0.00 0.00 0.00
0.00 0.00 0.00 0.00 0.00 0.00 0.00 0.00 0.00 0.00 0.00 0.00 0.00 0.00 0.00 0.00 0.00 0.00 0.00 0.00 0.00 0.00 0.00 0.00 0.00 0.00 0.00 0.00 0.00 0.00 0.00 0.00 0.00 0.00 0.00 0.00 0.00 0.00 0.00 0.00 0.00 0.00 0.00 0.00
0.00 0.00 0.00 0.00 0.00 0.00 0.00 0.00 0.00 0.00 0.00 0.00 0.00 0.00 0.00 0.00 0.00 0.00 0.00 0.00 0.00 0.00 0.00 0.00 0.00 0.00 0.00 0.00 0.00 0.00 0.00 0.00 0.00 0.00 0.00 0.00 0.00 0.00 0.00 0.00 0.00 0.00 0.00 0.00
0.00 0.00 0.00 0.00 0.00 0.00 0.00 0.00 0.00 0.00 0.00 0.00 0.00 0.00 0.00 0.00 0.00 0.00 0.00 0.00 0.00 0.00 0.00 0.00 0.00 0.00 0.00 0.00 0.00 0.00 0.00 0.00 0.00 0.00 0.00 0.00 0.00 0.00 0.00 0.00 0.00 0.00 0.00 0.00
0.00 0.00 0.00 0.00 0.00 0.00 0.00 0.00 0.00 0.00 0.00 0.00 0.00 0.00 0.00 0.00 0.00 0.00 0.00 0.00 0.00 0.00 0.00 0.00 0.00 0.00 0.00 0.00 0.00 0.00 0.00 0.00 0.00 0.00 0.00 0.00 0.00 0.00 0.00 0.00 0.00 0.00 0.00 0.00
0.00 0.00 0.00 0.00 0.00 0.00 0.00 0.00 0.00 0.00 0.00 0.00 0.00 0.00 0.00 0.00 0.00 0.00 0.00 0.00 0.00 0.00 0.00 0.00 0.00 0.00 0.00 0.00 0.00 0.00 0.00 0.00 0.00 0.00 0.00 0.00 0.00 0.00 0.00 0.00 0.00 0.00 0.00 0.00
0.00 0.00 0.00 0.00 0.00 0.00 0.00 0.00 0.00 0.00 0.00 0.00 0.00 0.00 0.00 0.00 0.00 0.00 0.00 0.00 0.00 0.00 0.00 0.00 0.00 0.00 0.00 0.00 0.00 0.00 0.00 0.00 0.00 0.00 0.00 0.00 0.00 0.00 0.00 0.00 0.00 0.00 0.00 0.00
0.00 0.00 0.00 0.00 0.00 0.00 0.00 0.00 0.00 0.00 0.00 0.00 0.00 0.00 0.00 0.00 0.00 0.00 0.00 0.00 0.00 0.00 0.00 0.00 0.00 0.00 0.00 0.00 0.00 0.00 0.00 0.00 0.00 0.00 0.00 0.00 0.00 0.00 0.00 0.00 0.00 0.00 0.00 0.00
0.00 0.00 0.00 0.00 0.00 0.00 0.00 0.00 0.00 0.00 0.00 0.00 0.00 0.00 0.00 0.00 0.00 0.00 0.00 0.00 0.00 0.00 0.00 0.00 0.00 0.00 0.00 0.00 0.00 0.00 0.00 0.00 0.00 0.00 0.00 0.00 0.00 0.00 0.00 0.00 0.00 0.00 0.00 0.00
0.00 0.00 0.00 0.00 0.00 0.00 0.00 0.00 0.00 0.00 0.00 0.00 0.00 0.00 0.00 0.00 0.00 0.00 0.00 0.00 0.00 0.00 0.00 0.00 0.00 0.00 0.00 0.00 0.00 0.00 0.00 0.00 0.00 0.00 0.00 0.00 0.00 0.00 0.00 0.00 0.00 0.00 0.00 0.00
0.00 0.00 0.00 0.00 0.00 0.00 0.00 0.00 0.00 0.00 0.00 0.00 0.00 0.00 0.00 0.00 0.00 0.00 0.00 0.00 0.00 0.00 0.00 0.00 0.00 0.00 0.00 0.00 0.00 0.00 0.00 0.00 0.00 0.00 0.00 0.00 0.00 0.00 0.00 0.00 0.00 0.00 0.00 0.00
0.00 0.00 0.00 0.00 0.00 0.00 0.00 0.00 0.00 0.00 0.00 0.00 0.00 0.00 0.00 0.00 0.00 0.00 0.00 0.00 0.00 0.00 0.00 0.00 0.00 0.00 0.00 0.00 0.00 0.00 0.00 0.00 0.00 0.00 0.00 0.00 0.00 0.00 0.00 0.00 0.00 0.00 0.00 0.00
0.00 0.00 0.00 0.00 0.00 0.00 0.00 0.00 0.00 0.00 0.00 0.00 0.00 0.00 0.00 0.00 0.00 0.00 0.00 0.00 0.00 0.00 0.00 0.00 0.00 0.00 0.00 0.00 0.00 0.00 0.00 0.00 0.00 0.00 0.00 0.00 0.00 0.00 0.00 0.00 0.00 0.00 0.00 0.00
0.00 0.00 0.00 0.00 0.00 0.00 0.00 0.00 0.00 0.00 0.00 0.00 0.00 0.00 0.00 0.00 0.00 0.00 0.00 0.00 0.00 0.00 0.00 0.00 0.00 0.00 0.00 0.00 0.00 0.00 0.00 0.00 0.00 0.00 0.00 0.00 0.00 0.00 0.00 0.00 0.00 0.00 0.00 0.00
0.00 0.00 0.00 0.00 0.00 0.00 0.00 0.00 0.00 0.00 0.00 0.00 0.00 0.00 0.00 0.00 0.00 0.00 0.00 0.00 0.00 0.00 0.00 0.00 0.00 0.00 0.00 0.00 0.00 0.00 0.00 0.00 0.00 0.00 0.00 0.00 0.00 0.00 0.00 0.00 0.00 0.00 0.00 0.00
0.00 0.00 0.00 0.00 0.00 0.00 0.00 0.00 0.00 0.00 0.00 0.00 0.00 0.00 0.00 0.00 0.00 0.00 0.00 0.00 0.00 0.00 0.00 0.00 0.00 0.00 0.00 0.00 0.00 0.00 0.00 0.00 0.00 0.00 0.00 0.00 0.00 0.00 0.00 0.00 0.00 0.00 0.00 0.00
0.00 0.00 0.00 0.00 0.00 0.00 0.00 0.00 0.00 0.00 0.00 0.00 0.00 0.00 0.00 0.00 0.00 0.00 0.00 0.00 0.00 0.00 0.00 0.00 0.00 0.00 0.00 0.00 0.00 0.00 0.00 0.00 0.00 0.00 0.00 0.00 0.00 0.00 0.00 0.00 0.00 0.00 0.00 0.00
0.00 0.00 0.00 0.00 0.00 0.00 0.00 0.00 0.00 0.00 0.00 0.00 0.00 0.00 0.00 0.00 0.00 0.00 0.00 0.00 0.00 0.00 0.00 0.00 0.00 0.00 0.00 0.00 0.00 0.00 0.00 0.00 0.00 0.00 0.00 0.00 0.00 0.00 0.00 0.00 0.00 0.00 0.00 0.00
MSLP
1002.57 1002.06 1001.75 1001.76 1002.27 1002.84 1003.14 1003.86 1004.90 1005.30 1005.75 1006.25 1006.83 1007.85 1008.74 1009.69 1010.90 1011.78 1012.63 1013.35 1014.01 1014.88 1015.50 1015.68 1015.95 1016.18 1016.16 1016.29 1016.49 1016.69 1016.77 1016.78 1016.82 1016.61 1016.38 1016.14 1015.84 1015.56 1015.30 1014.96 1014.62 1014.26 1013.90 1013.46
1003.37 1003.08 1003.12 1002.99 1002.68 1002.73 1003.26 1003.55 1004.00 1004.22 1004.49 1004.88 1006.08 1007.73 1009.17 1009.74 1010.76 1011.78 1012.61 1013.39 1014.19 1014.79 1015.18 1015.61 1015.92 1016.28 1016.53 1016.77 1016.85 1016.84 1016.88 1016.76 1016.60 1016.49 1016.31 1016.26 1016.10 1015.69 1015.23 1014.78 1014.33 1014.02 1013.76 1013.28
1004.50 1004.22 1004.48 1003.61 1002.29 1002.70 1002.75 1002.82 1003.07 1003.57 1003.87 1004.68 1006.35 1007.20 1008.64 1009.84 1010.64 1011.72 1012.74 1013.47 1014.06 1014.73 1015.31 1015.88 1016.36 1016.62 1017.03 1017.20 1017.10 1016.97 1016.94 1017.06 1016.92 1016.62 1016.49 1016.41 1016.15 1015.53 1015.06 1014.81 1014.41 1013.90 1013.49 1013.15
1005.68 1005.70 1005.00 1001.92 1001.39 1001.72 1002.21 1002.35 1002.89 1003.39 1003.86 1004.40 1006.24 1007.76 1008.91 1010.08 1011.00 1012.27 1013.03 1013.68 1014.35 1015.00 1015.72 1016.39 1016.73 1017.07 1017.32 1017.36 1017.45 1017.49 1017.41 1017.26 1017.17 1017.01 1016.73 1016.38 1015.92 1015.75 1015.28 1014.70 1014.36 1013.82 1013.26 1012.90
1005.99 1005.63 1004.15 1002.47 1002.05 1001.97 1002.03 1002.32 1002.20 1003.14 1003.85 1004.74 1006.69 1008.61 1010.50 1010.83 1011.51 1012.30 1013.15 1014.01 1014.75 1015.39 1016.22 1016.95 1017.35 1017.61 1017.71 1017.74 1017.54 1017.36 1017.57 1017.65 1017.52 1017.33 1016.85 1016.47 1015.91 1015.38 1015.21 1014.99 1014.30 1013.86 1013.37 1012.88
1006.27 1005.65 1004.22 1002.39 1001.59 1001.19 1001.89 1002.14 1002.10 1002.44 1003.49 1005.37 1006.73 1008.62 1010.74 1011.61 1012.17 1012.94 1013.73 1014.51 1015.34 1016.17 1016.89 1017.11 1017.37 1017.40 1017.38 1017.35 1017.68 1018.11 1018.07 1018.07 1017.75 1017.18 1016.81 1016.44 1016.08 1015.51 1014.84 1014.53 1014.14 1013.51 1012.94 1012.56
1005.95 1005.45 1003.95 1002.43 1001.79 1001.83 1003.18 1002.63 1002.73 1002.73 1003.59 1005.64 1006.98 1007.88 1010.22 1011.68 1012.64 1013.38 1014.16 1015.01 1015.84 1016.36 1016.62 1016.94 1016.92 1016.82 1017.37 1017.91 1018.18 1018.16 1017.96 1017.90 1017.55 1017.18 1016.70 1016.33 1015.91 1015.33 1014.71 1014.26 1013.86 1013.25 1012.72 1012.23
1005.93 1005.44 1003.86 1001.79 1002.43 1002.32 1002.75 1003.43 1003.24 1003.84 1004.74 1006.66 1007.90 1009.27 1010.60 1011.81 1012.86 1013.63 1014.48 1015.29 1015.53 1015.84 1016.29 1016.54 1016.97 1017.30 1017.85 1018.15 1018.06 1017.95 1017.90 1017.72 1017.47 1017.10 1016.61 1016.10 1015.55 1015.19 1014.72 1014.06 1013.56 1012.92 1012.42 1011.95
1004.02 1002.88 1002.00 1001.67 1001.95 1002.26 1002.56 1003.32 1004.45 1004.37 1005.84 1006.66 1008.34 1009.72 1010.83 1011.81 1012.82 1013.67 1014.45 1015.10 1015.60 1015.99 1016.69 1017.19 1017.57 1017.79 1018.00 1017.96 1017.72 1017.82 1017.76 1017.61 1017.30 1016.88 1016.52 1016.08 1015.38 1014.98 1014.58 1013.95 1013.34 1012.71 1012.25 1011.71
1003.44 1002.28 1002.22 1002.33 1002.76 1003.05 1003.59 1003.88 1004.75 1005.27 1006.27 1007.49 1008.77 1010.07 1011.21 1012.28 1013.26 1013.96 1014.67 1015.29 1015.66 1016.12 1016.96 1017.41 1017.51 1017.73 1017.98 1017.97 1017.89 1017.94 1017.77 1017.38 1017.08 1016.64 1016.13 1015.27 1015.10 1014.78 1014.53 1013.79 1013.16 1012.64 1012.07 1011.47
1002.52 1002.21 1002.47 1002.84 1002.87 1003.59 1004.61 1004.76 1005.30 1006.26 1006.82 1007.80 1008.84 1010.13 1011.12 1012.35 1013.44 1014.23 1014.79 1015.17 1015.69 1016.28 1016.99 1017.57 1017.81 1018.00 1018.04 1017.89 1017.77 1017.84 1017.68 1017.15 1016.81 1016.47 1015.57 1015.27 1014.74 1014.53 1014.29 1013.60 1013.06 1012.49 1011.94 1011.35
1000.49 1000.74 1001.18 1002.29 1003.01 1003.67 1004.37 1005.14 1005.69 1006.26 1007.54 1008.37 1008.89 1009.88 1010.93 1012.16 1013.16 1013.92 1014.74 1015.36 1016.01 1016.66 1017.11 1017.63 1017.95 1018.03 1017.92 1017.80 1017.78 1017.68 1017.49 1017.29 1016.81 1015.85 1015.37 1015.10 1014.55 1013.91 1013.49 1012.88 1012.25 1011.86 1011.35 1010.83
999.54 1000.03 1000.65 1001.57 1002.60 1003.54 1004.43 1005.33 1005.94 1006.55 1007.33 1008.37 1009.29 1009.94 1010.83 1012.14 1013.19 1014.01 1014.81 1015.64 1016.07 1016.70 1017.19 1017.53 1017.80 1018.00 1017.84 1017.76 1017.74 1017.70 1017.53 1017.21 1016.42 1015.92 1015.42 1015.02 1014.39 1013.65 1012.71 1012.02 1011.59 1011.14 1010.57 1010.03
999.16 1000.07 1001.40 1001.70 1002.79 1003.68 1004.43 1005.45 1006.17 1007.01 1007.76 1008.56 1009.40 1010.25 1011.10 1012.10 1013.28 1014.28 1015.14 1015.68 1016.19 1016.61 1017.23 1017.63 1017.78 1017.74 1017.43 1017.47 1017.51 1017.54 1017.36 1016.71 1016.46 1016.27 1015.60 1015.08 1014.17 1013.49 1012.71 1012.11 1011.36 1010.61 1009.99 1009.63
999.30 999.70 1000.65 1001.95 1003.05 1004.01 1004.84 1005.65 1006.74 1007.61 1008.45 1009.22 1009.97 1010.69 1011.57 1012.47 1013.22 1014.05 1015.11 1015.66 1016.23 1016.79 1017.21 1017.44 1017.53 1017.28 1016.98 1016.98 1017.43 1017.52 1016.97 1016.28 1016.10 1015.82 1015.48 1014.91 1014.13 1013.37 1012.68 1011.96 1011.29 1010.65 1009.94 1009.30
999.73 1000.24 1000.95 1002.03 1003.32 1004.13 1005.24 1006.18 1007.09 1008.12 1008.73 1009.42 1010.13 1010.90 1011.55 1012.16 1013.00 1013.88 1014.57 1015.37 1016.27 1016.82 1016.75 1016.83 1016.85 1016.64 1016.51 1016.65 1016.76 1016.70 1016.37 1016.35 1016.15 1015.79 1015.13 1014.53 1013.89 1013.19 1012.56 1011.86 1011.15 1010.59 1010.09 1009.60
1000.58 1001.51 1002.02 1002.78 1003.75 1004.78 1005.64 1006.26 1006.93 1007.89 1008.87 1009.64 1010.29 1010.85 1011.50 1012.42 1013.11 1013.76 1014.34 1014.77 1015.25 1015.65 1015.67 1015.79 1015.60 1015.56 1015.67 1015.69 1015.80 1015.84 1015.95 1016.02 1015.65 1015.28 1014.74 1014.24 1013.69 1013.11 1012.39 1011.65 1010.96 1010.38 1009.97 1009.70
1000.37 1001.20 1001.75 1002.54 1004.08 1005.28 1006.14 1006.76 1007.34 1008.05 1008.83 1009.50 1010.33 1011.09 1011.80 1012.54 1013.14 1013.32 1013.85 1014.20 1014.82 1015.02 1014.79 1014.51 1014.67 1014.52 1014.63 1014.64 1014.73 1015.00 1015.33 1015.42 1015.07 1014.76 1014.34 1013.92 1013.43 1012.91 1012.25 1011.46 1010.65 1009.98 1009.51 1009.37
1001.23 1002.16 1002.71 1003.51 1004.34 1005.55 1006.16 1007.05 1007.44 1007.87 1008.72 1009.71 1010.55 1011.25 1011.59 1012.13 1012.63 1012.88 1013.20 1014.05 1014.20 1014.18 1013.45 1013.22 1013.34 1013.49 1013.48 1013.44 1013.83 1014.27 1014.67 1014.68 1014.45 1014.23 1013.95 1013.60 1013.20 1012.72 1012.06 1011.27 1010.42 1009.72 1009.13 1008.79
1002.32 1002.84 1003.34 1004.25 1005.00 1005.75 1006.89 1007.38 1007.88 1008.65 1009.23 1009.97 1010.78 1011.57 1012.14 1012.34 1012.64 1013.04 1013.25 1013.17 1012.74 1012.28 1012.05 1012.16 1012.26 1012.41 1012.40 1012.63 1013.12 1013.66 1013.91 1014.00 1013.95 1013.78 1013.54 1013.28 1012.97 1012.46 1011.82 1011.06 1010.27 1009.46 1008.68 1008.21
1003.17 1003.64 1004.46 1005.35 1006.29 1007.01 1007.58 1007.94 1008.47 1009.40 1009.97 1010.48 1011.12 1011.71 1012.20 1012.66 1012.77 1012.81 1012.83 1012.51 1011.88 1011.63 1011.59 1011.50 1011.48 1011.57 1011.78 1012.10 1012.59 1013.00 1013.32 1013.39 1013.36 1013.29 1013.13 1012.90 1012.58 1012.13 1011.56 1010.88 1010.07 1009.24 1008.37 1007.65
1003.85 1004.59 1005.54 1006.35 1007.02 1007.90 1008.39 1008.69 1009.19 1009.86 1010.46 1011.04 1011.51 1011.91 1012.07 1012.21 1012.35 1012.17 1011.71 1011.61 1011.06 1010.81 1010.91 1010.96 1010.90 1010.99 1011.24 1011.71 1012.13 1012.48 1012.77 1012.85 1012.76 1012.69 1012.58 1012.38 1012.12 1011.76 1011.22 1010.58 1009.83 1008.98 1008.15 1007.34
1004.91 1005.58 1006.37 1007.11 1007.62 1008.31 1009.05 1009.45 1009.94 1010.15 1010.61 1011.03 1011.31 1011.54 1011.62 1011.53 1011.49 1011.56 1011.41 1011.31 1011.17 1011.17 1011.14 1011.23 1011.37 1011.49 1011.64 1011.88 1012.01 1012.11 1012.34 1012.24 1012.16 1012.15 1012.04 1011.87 1011.55 1011.15 1010.68 1010.16 1009.49 1008.73 1007.78 1007.05
1005.84 1006.59 1007.31 1007.70 1008.07 1008.82 1009.58 1009.81 1009.99 1010.28 1010.61 1010.97 1011.26 1011.47 1011.61 1011.81 1011.84 1011.74 1011.59 1011.71 1011.77 1011.77 1011.76 1011.74 1011.60 1011.54 1011.54 1011.56 1011.60 1011.67 1011.82 1011.73 1011.56 1011.42 1011.34 1011.19 1010.86 1010.48 1010.11 1009.66 1009.06 1008.35 1007.56 1006.73
1006.02 1006.76 1007.40 1007.90 1008.47 1009.17 1009.60 1010.12 1010.50 1010.95 1011.33 1011.46 1011.66 1011.82 1011.97 1011.81 1012.13 1012.14 1012.09 1011.98 1011.83 1011.78 1011.77 1011.50 1011.36 1011.27 1011.26 1011.21 1011.19 1011.22 1011.23 1010.99 1010.85 1010.63 1010.77 1010.56 1010.22 1009.84 1009.42 1009.04 1008.56 1007.98 1007.19 1006.43
1006.42 1007.00 1007.42 1007.90 1008.47 1009.10 1009.76 1010.31 1010.86 1011.26 1011.60 1012.07 1012.31 1012.13 1012.30 1012.22 1012.07 1012.12 1012.04 1012.00 1011.89 1011.73 1011.74 1011.39 1011.21 1011.05 1010.97 1010.86 1010.70 1010.55 1010.37 1010.16 1010.06 1009.94 1009.81 1009.56 1009.28 1009.02 1008.64 1008.27 1007.87 1007.41 1006.84 1006.25
1006.83 1007.24 1007.87 1008.51 1008.87 1009.36 1009.90 1010.60 1011.07 1011.49 1012.00 1012.48 1012.69 1012.31 1012.40 1012.44 1012.41 1012.48 1012.44 1012.32 1012.06 1011.63 1011.32 1010.99 1010.78 1010.65 1010.44 1010.23 1010.04 1009.75 1009.55 1009.40 1009.24 1009.13 1008.91 1008.72 1008.51 1008.21 1007.92 1007.50 1007.14 1006.79 1006.42 1005.88
Thickness
5631 5638 5644 5645 5639 5641 5637 5638 5615 5628 5621 5621 5624 5620 5615 5610 5600 5593 5585 5578 5570 5560 5554 5551 5544 5535 5531 5528 5518 5507 5499 5493 5483 5476 5467 5458 5450 5440 5430 5421 5416 5411 5406 5403
5608 5618 5608 5610 5623 5631 5620 5620 5623 5622 5625 5633 5626 5607 5596 5597 5588 5581 5573 5564 5558 5552 5546 5538 5530 5521 5514 5504 5496 5489 5483 5476 5467 5459 5450 5438 5426 5418 5412 5408 5404 5399 5392 5385
5598 5600 5594 5595 5606 5612 5618 5622 5623 5609 5623 5628 5605 5603 5596 5584 5580 5568 5558 5552 5547 5538 5530 5520 5509 5501 5491 5484 5478 5472 5463 5454 5447 5439 5429 5415 5407 5404 5401 5395 5389 5383 5377 5371
5566 5571 5577 5616 5626 5622 5614 5620 5616 5613 5617 5613 5598 5586 5578 5569 5558 5548 5543 5537 5529 5520 5509 5497 5489 5481 5474 5467 5459 5450 5443 5436 5426 5416 5406 5399 5395 5390 5387 5382 5375 5368 5366 5361
5568 5571 5580 5601 5603 5605 5603 5605 5617 5605 5605 5600 5581 5562 5543 5548 5545 5537 5528 5518 5510 5502 5490 5477 5469 5462 5455 5448 5443 5437 5426 5414 5404 5395 5390 5386 5383 5380 5374 5369 5363 5358 5355 5353
5543 5561 5573 5590 5602 5609 5608 5590 5605 5602 5595 5578 5573 5550 5523 5526 5523 5516 5508 5501 5491 5478 5466 5460 5455 5450 5444 5437 5425 5412 5401 5392 5386 5383 5380 5378 5374 5371 5367 5359 5354 5352 5350 5347
5535 5541 5548 5581 5591 5595 5570 5589 5586 5588 5580 5563 5559 5545 5523 5512 5504 5498 5491 5481 5469 5461 5454 5448 5444 5440 5428 5414 5403 5394 5387 5379 5374 5373 5372 5369 5365 5362 5360 5355 5350 5348 5346 5344
5516 5521 5546 5578 5575 5577 5572 5558 5559 5563 5556 5536 5527 5518 5508 5499 5489 5481 5473 5463 5457 5450 5444 5437 5428 5419 5406 5396 5389 5381 5373 5368 5366 5364 5363 5361 5359 5356 5352 5350 5348 5346 5343 5341
5535 5548 5564 5569 5567 5553 5555 5547 5540 5540 5528 5523 5509 5499 5493 5485 5476 5467 5457 5447 5440 5434 5424 5414 5405 5397 5388 5380 5376 5368 5363 5360 5359 5357 5354 5353 5354 5350 5346 5344 5344 5342 5339 5338
5526 5546 5549 5542 5541 5542 5543 5539 5532 5527 5516 5505 5493 5484 5475 5465 5456 5448 5439 5431 5426 5417 5405 5396 5390 5382 5373 5367 5360 5356 5353 5353 5351 5350 5349 5351 5347 5344 5339 5339 5339 5336 5335 5335
5515 5533 5531 5531 5534 5527 5521 5522 5518 5508 5501 5490 5481 5470 5462 5449 5439 5431 5423 5418 5409 5400 5390 5381 5372 5363 5357 5353 5352 5349 5346 5347 5346 5344 5347 5345 5341 5337 5333 5332 5331 5331 5329 5327
5530 5528 5526 5522 5515 5516 5511 5506 5500 5492 5480 5475 5469 5459 5450 5437 5427 5419 5409 5402 5392 5382 5373 5364 5355 5348 5346 5344 5342 5341 5339 5336 5336 5340 5339 5337 5336 5334 5329 5330 5329 5325 5324 5323
5523 5524 5519 5513 5508 5506 5497 5490 5484 5479 5471 5460 5453 5447 5437 5422 5411 5404 5394 5384 5376 5366 5357 5349 5343 5339 5337 5335 5333 5331 5329 5328 5330 5330 5330 5328 5327 5328 5331 5330 5324 5323 5322 5321
5519 5508 5497 5502 5493 5490 5485 5476 5470 5461 5453 5447 5440 5431 5419 5406 5392 5381 5372 5367 5358 5351 5342 5334 5330 5330 5330 5328 5326 5322 5319 5323 5320 5315 5317 5315 5319 5319 5321 5320 5321 5322 5319 5317
5502 5502 5490 5484 5477 5472 5467 5461 5451 5442 5433 5425 5418 5410 5398 5386 5377 5366 5353 5346 5339 5328 5324 5321 5319 5324 5323 5320 5313 5310 5313 5314 5310 5306 5304 5304 5307 5310 5310 5311 5312 5313 5314 5313
5481 5480 5478 5473 5464 5459 5451 5442 5431 5421 5417 5411 5401 5391 5383 5374 5363 5352 5341 5334 5327 5323 5322 5316 5313 5317 5315 5312 5308 5306 5306 5300 5297 5294 5295 5295 5296 5298 5298 5299 5302 5303 5304 5305
5457 5455 5456 5452 5446 5439 5433 5426 5416 5407 5398 5391 5383 5376 5368 5356 5347 5336 5332 5328 5324 5319 5318 5314 5315 5313 5310 5308 5305 5301 5294 5289 5287 5284 5283 5282 5282 5283 5284 5287 5290 5293 5296 5294
5456 5452 5450 5440 5427 5419 5410 5402 5394 5389 5383 5379 5368 5354 5345 5340 5338 5333 5328 5323 5314 5311 5312 5313 5310 5310 5306 5303 5298 5291 5283 5278 5276 5274 5274 5272 5272 5273 5274 5278 5282 5285 5288 5288
5436 5426 5421 5416 5410 5400 5394 5387 5383 5379 5367 5359 5349 5345 5342 5338 5333 5330 5321 5312 5310 5310 5314 5309 5306 5304 5301 5296 5288 5279 5271 5268 5266 5266 5264 5262 5262 5263 5265 5269 5274 5277 5281 5283
5412 5408 5402 5396 5391 5387 5378 5371 5365 5359 5354 5346 5333 5327 5324 5319 5318 5312 5306 5310 5314 5313 5310 5305 5300 5296 5291 5284 5275 5267 5263 5258 5257 5256 5253 5253 5252 5253 5255 5259 5263 5269 5275 5278
5395 5392 5384 5376 5365 5358 5353 5351 5348 5342 5330 5327 5326 5321 5316 5309 5302 5298 5297 5305 5306 5300 5296 5292 5288 5283 5277 5269 5262 5256 5251 5246 5242 5242 5241 5242 5243 5244 5245 5249 5254 5260 5268 5273
5373 5365 5357 5353 5351 5346 5344 5342 5338 5331 5326 5317 5304 5301 5299 5299 5296 5294 5294 5294 5294 5288 5283 5278 5274 5269 5263 5254 5249 5242 5239 5235 5233 5230 5229 5228 5229 5231 5235 5239 5245 5250 5258 5265
5356 5351 5346 5340 5337 5336 5330 5323 5314 5316 5316 5310 5303 5302 5300 5297 5293 5290 5287 5278 5273 5268 5263 5257 5250 5245 5240 5234 5230 5227 5223 5220 5217 5216 5215 5215 5215 5218 5223 5227 5233 5239 5247 5255
5339 5335 5332 5329 5326 5319 5315 5311 5311 5306 5300 5295 5290 5285 5284 5277 5266 5265 5261 5254 5249 5243 5238 5233 5230 5225 5221 5217 5213 5209 5204 5202 5200 5199 5200 5199 5200 5203 5208 5213 5219 5226 5234 5243
5331 5327 5322 5317 5316 5310 5306 5301 5293 5286 5282 5279 5271 5268 5265 5259 5249 5244 5237 5232 5226 5222 5217 5212 5208 5204 5199 5195 5190 5186 5182 5180 5178 5179 5177 5177 5181 5185 5190 5194 5201 5209 5218 5228
5326 5320 5316 5315 5308 5300 5293 5287 5278 5269 5266 5256 5250 5245 5240 5237 5233 5226 5219 5212 5207 5202 5195 5190 5185 5180 5176 5171 5166 5162 5158 5156 5152 5151 5149 5152 5155 5159 5165 5173 5180 5190 5200 5210
5313 5307 5303 5296 5291 5286 5279 5272 5263 5254 5249 5239 5233 5227 5224 5216 5210 5205 5199 5190 5185 5181 5176 5172 5165 5159 5153 5148 5141 5137 5132 5129 5126 5126 5126 5127 5130 5135 5141 5148 5158 5168 5179 5192